EUTELSAT 3B

Last updated on Nov. 14, 2019, 4:21 a.m. UTC

1 39773U 14030A   19317.83130352  .00000034  00000-0  00000+0 0  9999
2 39773   0.0724 336.8842 0005783 233.2465 144.9004  1.00271701 20087
UTC
Height (km)
Latitude
Longitude
Inclination
Orbital Period
UTC large
Height (km)
Speed (km/s)
/
Latitude / Longitude
Inclination (degrees)
Orbital Period (minutes)
Azimuth
Elevation
Range (km)
Doppler Factor
iOS Compass Heading
iOS Angle

Next 30 passes for location: Hong Kong

Rise time Rise Azimuth (degrees) Set time Set Azimuth (degrees) Duration Max altitude (degrees)

No matching passes for this satellites